FW8901 Weather Reports


Display with metric or nautical units.
time (UTC)temp
F
wind
direction
speed
MPH
gust
MPH
rain 1hr
in
rain 24hr
in
rain mn
in
humidity
%
barometer
mb
20260506212049 69 0.0 0.0 0.00 0.15 0.15 82 1008.5
20260506211609 69 0.0 0.0 0.00 0.15 0.15 80 1008.3
20260506211050 68 0.0 0.0 0.00 0.15 0.15 80 1008.2
20260506210605 68 0.0 0.0 0.00 0.15 0.15 80 1008.2
20260506210056 68 0.0 0.0 0.00 0.15 0.15 80 1008.1
20260506205549 68 0.0 0.0 0.00 0.15 0.15 81 1008.0
20260506205048 68 0.0 0.0 0.00 0.15 0.15 81 1008.1
20260506204558 68 0.0 0.0 0.00 0.15 0.15 80 1008.0
20260506204048 68 0.0 0.0 0.00 0.15 0.15 80 1008.2
20260506203601 68 0.0 0.0 0.00 0.15 0.15 81 1008.1
20260506203055 68 0.0 0.0 0.00 0.15 0.15 81 1008.2
20260506202549 68 0.0 0.0 0.00 0.15 0.15 82 1008.1
20260506202048 67 0.0 0.0 0.00 0.15 0.15 81 1008.2
20260506201553 68 0.0 0.0 0.00 0.15 0.15 82 1008.0
20260506201047 68 0.0 0.0 0.00 0.15 0.15 83 1008.2
20260506200604 68 0.0 0.0 0.00 0.15 0.15 81 1008.1
20260506200055 68 0.0 0.0 0.00 0.15 0.15 83 1008.2
20260506195548 67 0.0 0.0 0.00 0.15 0.15 82 1008.2
20260506195048 67 0.0 0.0 0.00 0.15 0.15 81 1008.2
20260506194554 67 0.0 0.0 0.00 0.15 0.15 82 1008.1
20260506194048 67 0.0 0.0 0.00 0.15 0.15 82 1008.2
20260506193548 67 0.0 0.0 0.00 0.15 0.15 83 1008.4
20260506193054 66 0.0 0.0 0.00 0.15 0.15 84 1008.5
20260506192548 66 0.0 0.0 0.00 0.15 0.15 84 1008.5
20260506192048 66 0.0 0.0 0.00 0.15 0.15 84 1008.6
20260506191557 65 0.0 0.0 0.00 0.15 0.15 84 1008.5
20260506191051 66 0.0 0.0 0.00 0.15 0.15 84 1008.6
20260506190549 66 0.0 0.0 0.00 0.15 0.15 84 1008.8
20260506190059 66 0.0 0.0 0.00 0.15 0.15 84 1009.0
20260506185549 66 0.0 0.0 0.00 0.15 0.15 84 1008.9
20260506185048 66 0.0 0.0 0.00 0.15 0.15 85 1008.9
20260506184607 65 0.0 0.0 0.00 0.15 0.15 84 1009.2
20260506184048 65 0.0 0.0 0.00 0.15 0.15 85 1009.2
20260506183550 65 0.0 0.0 0.00 0.15 0.15 85 1009.1
20260506183053 65 0.0 0.0 0.00 0.15 0.15 85 1009.3
20260506182548 65 0.0 0.0 0.00 0.15 0.15 85 1009.0
20260506182049 65 0.0 0.0 0.00 0.15 0.15 85 1008.9
20260506181552 65 0.0 0.0 0.00 0.15 0.15 86 1009.0
20260506181049 65 0.0 0.0 0.00 0.15 0.15 85 1009.1
20260506180549 65 0.0 0.0 0.00 0.15 0.15 85 1009.0
20260506180055 65 0.0 0.0 0.00 0.15 0.15 85 1009.2
20260506175548 64 0.0 0.0 0.00 0.15 0.15 86 1009.0
20260506175048 64 0.0 0.0 0.00 0.15 0.15 86 1009.5
20260506174556 64 0.0 0.0 0.00 0.15 0.15 85 1009.4
20260506174053 64 0.0 0.0 0.00 0.15 0.15 86 1009.4
20260506173551 64 0.0 0.0 0.00 0.15 0.15 86 1009.3
20260506173106 64 0.0 0.0 0.00 0.15 0.15 86 1009.4
20260506172549 64 0.0 0.0 0.00 0.15 0.15 86 1009.4
20260506172049 64 0.0 0.0 0.00 0.15 0.15 87 1009.6
20260506171558 63 0.0 0.0 0.00 0.15 0.15 86 1009.5
20260506171049 63 0.0 0.0 0.00 0.15 0.15 87 1009.5
20260506170554 63 0.0 0.0 0.00 0.15 0.15 86 1009.6
20260506170059 63 0.0 0.0 0.00 0.15 0.15 86 1009.9
20260506165549 63 0.0 0.0 0.00 0.15 0.15 87 1009.7
20260506165049 63 0.0 0.0 0.00 0.15 0.15 86 1009.8
20260506164613 63 0.0 0.0 0.00 0.15 0.15 86 1009.7
20260506164049 63 0.0 0.0 0.00 0.15 0.15 87 1009.9
20260506163548 63 0.0 0.0 0.00 0.15 0.15 87 1009.9
20260506163112 63 0.0 0.0 0.00 0.15 0.15 88 1009.8
20260506162549 63 0.0 0.0 0.00 0.15 0.15 89 1009.8
20260506162049 62 0.0 0.0 0.00 0.15 0.15 90 1009.8
20260506161553 62 0.0 0.0 0.00 0.15 0.15 92 1009.9
20260506161048 62 0.0 0.0 0.00 0.15 0.15 91 1009.9
20260506160547 61 0.0 0.0 0.00 0.15 0.15 91 1009.9
20260506160106 61 0.0 0.0 0.00 0.15 0.15 91 1010.0
20260506155548 61 0.0 0.0 0.00 0.15 0.15 91 1010.0
20260506155047 61 0.0 0.0 0.01 0.15 0.15 91 1009.8
20260506154555 61 0.0 0.0 0.01 0.15 0.15 92 1009.9
20260506154047 61 0.0 0.0 0.01 0.15 0.15 92 1010.0
20260506153547 61 0.0 0.0 0.01 0.15 0.15 92 1010.1
20260506153055 61 0.0 0.0 0.03 0.15 0.15 92 1010.0
20260506152551 61 0.0 0.0 0.04 0.15 0.15 93 1010.0
20260506152046 61 0.0 0.0 0.05 0.15 0.15 93 1010.1
20260506151552 61 0.0 0.0 0.06 0.15 0.15 93 1010.1
20260506151047 61 0.0 0.0 0.09 0.15 0.15 93 1010.1
20260506150547 61 0.0 0.0 0.09 0.15 0.15 93 1009.8
20260506150108 60 0.0 0.0 0.09 0.15 0.15 93 1010.1
20260506145551 60 0.0 0.0 0.09 0.15 0.15 93 1010.3
20260506145047 60 0.0 0.0 0.08 0.14 0.14 93 1010.2
20260506144554 60 0.0 0.0 0.08 0.14 0.14 92 1010.4
20260506144047 60 0.0 0.0 0.08 0.14 0.14 92 1010.5
20260506143547 60 0.0 0.0 0.07 0.13 0.13 91 1010.6
20260506143055 60 0.0 0.0 0.07 0.12 0.12 91 1010.6
20260506142546 60 0.0 0.0 0.07 0.11 0.11 90 1010.8
20260506142047 60 0.0 0.0 0.06 0.10 0.10 91 1010.9
20260506141609 60 0.0 0.0 0.05 0.08 0.08 91 1010.8
20260506141049 60 0.0 0.0 0.03 0.06 0.06 91 1010.8
20260506140551 60 0.0 0.0 0.04 0.06 0.06 91 1010.6
20260506140052 60 0.0 0.0 0.05 0.06 0.06 89 1010.7
20260506135610 61 0.0 0.0 0.05 0.06 0.06 89 1010.6
20260506135045 60 0.0 0.0 0.06 0.06 0.06 88 1010.5
20260506134553 60 0.0 0.0 0.06 0.06 0.06 88 1010.6
20260506134047 61 0.0 0.0 0.06 0.06 0.06 87 1010.6
20260506133548 61 0.0 0.0 0.06 0.06 0.06 87 1010.7
20260506133104 61 0.0 0.0 0.05 0.05 0.05 87 1010.8
20260506132547 61 0.0 0.0 0.04 0.04 0.04 86 1010.7
20260506132047 61 0.0 0.0 0.04 0.04 0.04 86 1010.6
20260506131556 61 0.0 0.0 0.03 0.03 0.03 85 1010.7
20260506131047 62 0.0 0.0 0.02 0.02 0.02 85 1010.8
20260506130547 62 0.0 0.0 0.01 0.01 0.01 84 1011.1
20260506130054 62 0.0 0.0 0.01 0.01 0.01 84 1010.9
20260506125546 62 0.0 0.0 0.01 0.01 0.01 84 1010.6
20260506125047 62 0.0 0.0 0.00 0.00 0.00 83 1010.6
20260506124553 62 0.0 0.0 0.00 0.00 0.00 83 1010.7
20260506124048 62 0.0 0.0 0.00 0.00 0.00 83 1010.7
20260506123548 62 0.0 0.0 0.00 0.00 0.00 83 1010.6
20260506123055 63 0.0 0.0 0.00 0.00 0.00 82 1010.4
20260506122548 63 0.0 0.0 0.00 0.00 0.00 81 1010.4
20260506122049 63 0.0 0.0 0.00 0.00 0.00 81 1010.3
20260506121602 63 0.0 0.0 0.00 0.00 0.00 81 1010.5
20260506121048 63 0.0 0.0 0.00 0.00 0.00 80 1010.5
20260506120548 63 0.0 0.0 0.00 0.00 0.00 80 1010.3
20260506120118 63 0.0 0.0 0.00 0.00 0.00 79 1010.3
20260506115549 64 0.0 0.0 0.00 0.00 0.00 79 1010.5
20260506115048 64 0.0 0.0 0.00 0.00 0.00 78 1010.6
20260506114551 64 0.0 0.0 0.00 0.00 0.00 77 1010.7
20260506114047 64 0.0 0.0 0.00 0.00 0.00 76 1010.8
20260506113548 64 0.0 0.0 0.00 0.00 0.00 75 1010.7
20260506113059 64 0.0 0.0 0.00 0.00 0.00 75 1010.6
20260506112549 64 0.0 0.0 0.00 0.00 0.00 75 1010.5
20260506112047 64 0.0 0.0 0.00 0.00 0.00 74 1010.3
20260506111554 64 0.0 0.0 0.00 0.00 0.00 73 1010.2
20260506111048 64 0.0 0.0 0.00 0.00 0.00 73 1010.0
20260506110548 64 0.0 0.0 0.00 0.00 0.00 73 1009.9
20260506110056 64 0.0 0.0 0.00 0.00 0.00 72 1009.9
20260506105549 64 0.0 0.0 0.00 0.00 0.00 73 1009.9
20260506105048 64 0.0 0.0 0.00 0.00 0.00 72 1009.8
20260506104552 64 0.0 0.0 0.00 0.00 0.00 72 1009.8
20260506104048 64 0.0 0.0 0.00 0.00 0.00 72 1009.8
20260506103547 64 0.0 0.0 0.00 0.00 0.00 72 1009.8
20260506103054 64 0.0 0.0 0.00 0.00 0.00 72 1009.8
20260506102550 64 0.0 0.0 0.00 0.00 0.00 72 1009.8
20260506102046 64 0.0 0.0 0.00 0.00 0.00 72 1009.8
20260506101558 64 0.0 0.0 0.00 0.00 0.00 72 1009.8
20260506101048 64 0.0 0.0 0.00 0.00 0.00 72 1009.8
20260506100547 65 0.0 0.0 0.00 0.00 0.00 72 1009.9
20260506100057 65 0.0 0.0 0.00 0.00 0.00 72 1009.9
20260506095547 65 0.0 0.0 0.00 0.00 0.00 72 1009.9
20260506095046 65 0.0 0.0 0.00 0.00 0.00 71 1009.9
20260506094555 65 0.0 0.0 0.00 0.00 0.00 71 1009.8
20260506094047 65 0.0 0.0 0.00 0.00 0.00 71 1009.9
20260506093548 65 0.0 0.0 0.00 0.00 0.00 71 1009.9
20260506093054 65 0.0 0.0 0.00 0.00 0.00 71 1009.8
20260506092548 65 0.0 0.0 0.00 0.00 0.00 70 1009.8
20260506092047 65 0.0 0.0 0.00 0.00 0.00 70 1009.8
20260506091559 65 0.0 0.0 0.00 0.00 0.00 70 1009.9
20260506091047 65 0.0 0.0 0.00 0.00 0.00 70 1009.8
20260506090546 65 0.0 0.0 0.00 0.00 0.00 70 1010.0
20260506090055 65 0.0 0.0 0.00 0.00 0.00 70 1010.0
20260506085547 65 0.0 0.0 0.00 0.00 0.00 69 1010.1
20260506085047 65 0.0 0.0 0.00 0.00 0.00 69 1010.0
20260506084555 65 0.0 0.0 0.00 0.00 0.00 69 1010.1
20260506084047 65 0.0 0.0 0.00 0.00 0.00 69 1010.0
20260506083547 65 0.0 0.0 0.00 0.00 0.00 68 1010.1
20260506083054 65 0.0 0.0 0.00 0.00 0.00 68 1010.1
20260506082546 66 0.0 0.0 0.00 0.00 0.00 68 1010.1
20260506082047 66 0.0 0.0 0.00 0.00 0.00 67 1010.0
20260506081555 66 0.0 0.0 0.00 0.00 0.00 67 1010.1
20260506081048 66 0.0 0.0 0.00 0.00 0.00 67 1010.2
20260506080548 66 0.0 0.0 0.00 0.00 0.00 66 1010.2
20260506073113 67 0.0 0.0 0.00 0.00 0.00 64 1010.2
20260506072547 67 0.0 0.0 0.00 0.00 0.00 64 1010.1
20260506072047 67 0.0 0.0 0.00 0.00 0.00 64 1010.1
20260506071557 67 0.0 0.0 0.00 0.00 0.00 63 1010.1
20260506071047 67 0.0 0.0 0.00 0.00 0.00 63 1010.2
20260506070546 67 0.0 0.0 0.00 0.00 0.00 63 1010.2
20260506070116 67 0.0 0.0 0.00 0.00 0.00 63 1010.2
20260506062050 68 0.0 0.0 0.00 0.00 0.00 61 1010.7
20260506061553 68 0.0 0.0 0.00 0.00 0.00 61 1010.7
20260506061049 68 0.0 0.0 0.00 0.00 0.00 61 1010.7
20260506060546 68 0.0 0.0 0.00 0.00 0.00 60 1010.7
20260506051048 69 0.0 0.0 0.00 0.00 0.00 57 1011.0
20260506050548 69 0.0 0.0 0.00 0.00 0.00 58 1011.0
20260506050110 69 0.0 0.0 0.00 0.00 0.00 57 1011.1
20260506045047 70 0.0 0.0 0.00 0.00 0.00 57 1011.2
20260506044600 70 0.0 0.0 0.00 0.00 0.00 57 1011.2
20260506044047 70 0.0 0.0 0.00 0.00 0.00 56 1011.2
20260506043547 70 0.0 0.0 0.00 0.00 0.00 56 1011.1
20260506043053 70 0.0 0.0 0.00 0.00 0.00 55 1011.0
20260506042547 70 0.0 0.0 0.00 0.00 0.00 55 1011.0
20260506042046 70 0.0 0.0 0.00 0.00 0.00 55 1011.0
20260506041556 70 0.0 0.0 0.00 0.00 0.00 55 1011.0
20260506041049 70 0.0 0.0 0.00 0.00 0.00 55 1011.0
20260506040548 70 0.0 0.0 0.00 0.00 0.00 54 1011.1
20260506040058 70 0.0 0.0 0.00 0.00 0.00 54 1011.0
20260506035548 70 0.0 0.0 0.00 0.00 0.00 54 1011.1
20260506035048 70 0.0 0.0 0.00 0.00 0.00 54 1011.1
20260506034553 70 0.0 0.0 0.00 0.00 0.00 54 1011.1
20260506034047 70 0.0 0.0 0.00 0.00 0.00 53 1011.1
20260506033549 70 0.0 0.0 0.00 0.00 0.00 53 1011.1
20260506033053 70 0.0 0.0 0.00 0.00 0.00 53 1011.1
20260506032548 70 0.0 0.0 0.00 0.00 0.00 53 1011.0
20260506032047 70 0.0 0.0 0.00 0.00 0.00 53 1011.1
20260506031601 70 0.0 0.0 0.00 0.00 0.00 53 1011.0
20260506031047 70 0.0 0.0 0.00 0.00 0.00 52 1011.1
20260506030549 70 0.0 0.0 0.00 0.00 0.00 52 1011.2
20260506030110 70 0.0 0.0 0.00 0.00 0.00 51 1011.1
20260506025548 70 0.0 0.0 0.00 0.00 0.00 51 1011.1
20260506025048 70 0.0 0.0 0.00 0.00 0.00 51 1011.1
20260506024553 70 0.0 0.0 0.00 0.00 0.00 50 1011.2
20260506024047 71 0.0 0.0 0.00 0.00 0.00 50 1011.2
20260506023547 71 0.0 0.0 0.00 0.00 0.00 49 1011.2
20260506023054 71 0.0 0.0 0.00 0.00 0.00 49 1011.3
20260506022548 71 0.0 0.0 0.00 0.00 0.00 49 1011.3
20260506022048 71 0.0 0.0 0.00 0.00 0.00 48 1011.3
20260506021558 71 0.0 0.0 0.00 0.00 0.00 48 1011.4
20260506021058 71 0.0 0.0 0.00 0.00 0.00 48 1011.4
20260506020547 71 0.0 0.0 0.00 0.00 0.00 47 1011.4
20260506020055 71 0.0 0.0 0.00 0.00 0.00 46 1011.5
20260506015547 72 0.0 0.0 0.00 0.00 0.00 46 1011.4
20260506015047 72 0.0 0.0 0.00 0.00 0.00 45 1011.3
20260506014601 72 0.0 0.0 0.00 0.00 0.00 45 1011.3
20260506014046 72 0.0 0.0 0.00 0.00 0.00 44 1011.3
20260506013546 73 0.0 0.0 0.00 0.00 0.00 43 1011.1
20260506013102 73 0.0 0.0 0.00 0.00 0.00 43 1011.1
20260506012547 73 0.0 0.0 0.00 0.00 0.00 41 1011.1
20260506012047 73 0.0 0.0 0.00 0.00 0.00 41 1011.1
20260506011558 74 0.0 0.0 0.00 0.00 0.00 42 1011.0
20260506011047 74 0.0 0.0 0.00 0.00 0.00 40 1011.0
20260506010547 74 0.0 0.0 0.00 0.00 0.00 40 1010.9
20260506010059 74 0.0 0.0 0.00 0.00 0.00 40 1010.8
20260506005548 74 0.0 0.0 0.00 0.00 0.00 40 1010.8
20260506005049 74 0.0 0.0 0.00 0.00 0.00 40 1010.8
20260506004626 75 0.0 0.0 0.00 0.00 0.00 39 1010.7
20260506004048 75 0.0 0.0 0.00 0.00 0.00 38 1010.6
20260506003548 75 0.0 0.0 0.00 0.00 0.00 39 1010.6
20260506003057 75 0.0 0.0 0.00 0.00 0.00 39 1010.5
20260506002546 75 0.0 0.0 0.00 0.00 0.00 37 1010.5
20260506002052 76 0.0 0.0 0.00 0.00 0.00 38 1010.4
20260506001600 76 0.0 0.0 0.00 0.00 0.00 37 1010.4
20260506001047 76 0.0 0.0 0.00 0.00 0.00 37 1010.4
20260506000548 76 0.0 0.0 0.00 0.00 0.00 36 1010.3
20260506000058 76 0.0 0.0 0.00 0.00 0.00 35 1010.2
20260505235551 77 0.0 0.0 0.00 0.00 0.00 35 1010.2
20260505235048 77 0.0 0.0 0.00 0.00 0.00 35 1010.1
20260505234614 77 0.0 0.0 0.00 0.00 0.00 34 1010.0
20260505234049 78 0.0 0.0 0.00 0.00 0.00 34 1010.1
20260505233547 78 0.0 0.0 0.00 0.00 0.00 33 1010.0
20260505233057 78 0.0 0.0 0.00 0.00 0.00 33 1010.1
20260505232548 78 0.0 0.0 0.00 0.00 0.00 33 1010.1
20260505232056 79 0.0 0.0 0.00 0.00 0.00 31 1010.1
20260505231558 79 0.0 0.0 0.00 0.00 0.00 31 1010.1
20260505231049 79 0.0 0.0 0.00 0.00 0.00 30 1010.2
20260505230548 79 0.0 0.0 0.00 0.00 0.00 29 1010.2
20260505230058 79 0.0 0.0 0.00 0.00 0.00 29 1010.2
20260505225547 79 0.0 0.0 0.00 0.00 0.00 29 1010.1
20260505225104 79 0.0 0.0 0.00 0.00 0.00 28 1010.1
20260505224558 79 0.0 0.0 0.00 0.00 0.00 28 1010.2
20260505224048 80 0.0 0.0 0.00 0.00 0.00 27 1010.2
20260505223548 80 0.0 0.0 0.00 0.00 0.00 29 1010.1
20260505223104 80 0.0 0.0 0.00 0.00 0.00 30 1010.0
20260505222547 80 0.0 0.0 0.00 0.00 0.00 31 1010.0
20260505222057 80 0.0 0.0 0.00 0.00 0.00 30 1010.0
20260505221607 79 0.0 0.0 0.00 0.00 0.00 31 1010.0
20260505221048 80 0.0 0.0 0.00 0.00 0.00 30 1010.0
20260505220551 80 0.0 0.0 0.00 0.00 0.00 30 1010.1
20260505220138 80 0.0 0.0 0.00 0.00 0.00 28 1010.0
20260505215549 80 0.0 0.0 0.00 0.00 0.00 28 1010.1
20260505215048 79 0.0 0.0 0.00 0.00 0.00 28 1010.1
20260505214618 80 0.0 0.0 0.00 0.00 0.00 28 1010.1
20260505214046 80 0.0 0.0 0.00 0.00 0.00 27 1009.9
20260505213549 80 0.0 0.0 0.00 0.00 0.00 28 1010.0
20260505213053 80 0.0 0.0 0.00 0.00 0.00 27 1010.0
20260505212548 81 0.0 0.0 0.00 0.00 0.00 27 1009.8